Weather History for Portoroz, Slovenia

Change the Weather History Date:

Tuesday, November 20, 2012

  Actual Average (LIVT) Record (LIVT)
Temperature  
Mean Temperature 52 °F -  
Max Temperature 59 °F 52 °F 64 °F (2013)
Min Temperature 44 °F 45 °F 35 °F (1997)
Degree Days  
Heating Degree Days 14    
Growing Degree Days 2 (Base 50)    
Moisture  
Dew Point 42 °F    
Average Humidity 66    
Maximum Humidity 87    
Minimum Humidity 55    
Precipitation  
Precipitation 0.00 in - - ()
Sea Level Pressure  
Sea Level Pressure 30.02 in    
Wind  
Wind Speed 4 mph ()    
Max Wind Speed 12 mph    
Max Gust Speed -    
Visibility 6.2 miles    
Events      
Averages and records for this station are not official NWS values.
T = Trace of Precipitation, MM = Missing Value Source: Averaged Metar Reports

Daily Weather History Graph

Daily Weather History Graph

Search for Another Location

Airport:

Trip Planner

Search our weather history database for the weather conditions in past years. The results will help you decide how hot, cold, wet, or windy it might be!

Date:

Astronomy

Nov. 20, 2012 Rise Set
Actual Time 7:11 AM CET 4:30 PM CET
Civil Twilight 6:39 AM CET 5:02 PM CET
Nautical Twilight 6:02 AM CET 5:39 PM CET
Astronomical Twilight 5:27 AM CET 6:14 PM CET
Moon 12:27 PM CET (11/20) 11:54 PM CET (11/20)
Length of Visible Light 10h 23m
Length of Day
9h 18m
Waxing Crescent, 48% of the Moon is Illuminated
Nov 20
Waxing Crescent
Nov 20
First Quarter
Nov 28
Full
Dec 6
Last Quarter
Dec 13
New

Hourly Weather History & Observations

Time (CET) Temp. Windchill Dew Point Humidity Pressure Visibility Wind Dir Wind Speed Gust Speed Precip Events Conditions
12:00 AM 55.4 °F - 44.6 °F 67% 29.98 in 6.2 mi Variable 1.2 mph - N/A   Unknown
12:30 AM 55.4 °F - 44.6 °F 67% 29.98 in 6.2 mi Variable 1.2 mph - N/A   Unknown
1:00 AM 55.4 °F - 42.8 °F 63% 29.98 in 6.2 mi Variable 2.3 mph - N/A   Unknown
1:30 AM 55.4 °F - 44.6 °F 67% 29.98 in 6.2 mi Variable 1.2 mph - N/A   Unknown
2:00 AM 55.4 °F - 41.0 °F 58% 29.98 in 6.2 mi East 4.6 mph - N/A   Unknown
2:30 AM 55.4 °F - 42.8 °F 63% 29.98 in 6.2 mi Variable 2.3 mph - N/A   Unknown
3:00 AM 53.6 °F - 42.8 °F 67% 29.98 in 6.2 mi Variable 3.5 mph - N/A   Unknown
3:30 AM 53.6 °F - 41.0 °F 62% 29.98 in 6.2 mi Variable 3.5 mph - N/A   Unknown
4:00 AM 53.6 °F - 41.0 °F 62% 29.95 in 6.2 mi ESE 5.8 mph - N/A   Unknown
4:30 AM 51.8 °F - 41.0 °F 67% 29.95 in 6.2 mi Variable 3.5 mph - N/A   Unknown
5:00 AM 51.8 °F - 41.0 °F 67% 29.95 in 6.2 mi Variable 2.3 mph - N/A   Unknown
5:30 AM 51.8 °F - 41.0 °F 67% 29.98 in 6.2 mi Variable 1.2 mph - N/A   Unknown
6:00 AM 51.8 °F - 41.0 °F 67% 29.98 in - Variable 2.3 mph - N/A   Clear
6:30 AM 51.8 °F - 41.0 °F 67% 29.98 in - SE 4.6 mph - N/A   Clear
7:00 AM 51.8 °F - 41.0 °F 67% 29.98 in - Variable 2.3 mph - N/A   Clear
7:30 AM 51.8 °F - 39.2 °F 62% 29.98 in - ESE 4.6 mph - N/A   Clear
8:00 AM 51.8 °F - 41.0 °F 67% 30.01 in - East 8.1 mph - N/A   Clear
8:30 AM 51.8 °F - 41.0 °F 67% 30.01 in - East 6.9 mph - N/A   Clear
9:00 AM 51.8 °F - 41.0 °F 67% 30.01 in - Variable 3.5 mph - N/A   Clear
9:30 AM 51.8 °F - 41.0 °F 67% 30.01 in - Variable 2.3 mph - N/A   Clear
10:00 AM 53.6 °F - 41.0 °F 62% 30.04 in - Variable 2.3 mph - N/A   Clear
10:30 AM 53.6 °F - 41.0 °F 62% 30.04 in - Variable 2.3 mph - N/A   Clear
11:00 AM 55.4 °F - 41.0 °F 58% 30.01 in - East 3.5 mph - N/A   Clear
11:30 AM 57.2 °F - 42.8 °F 59% 30.01 in - East 4.6 mph - N/A   Clear
12:00 PM 57.2 °F - 42.8 °F 59% 30.01 in - ENE 6.9 mph - N/A   Clear
12:30 PM 59.0 °F - 42.8 °F 55% 30.01 in - ENE 9.2 mph - N/A   Clear
1:00 PM 57.2 °F - 42.8 °F 59% 30.01 in - ENE 10.4 mph - N/A   Clear
1:30 PM 57.2 °F - 42.8 °F 59% 30.01 in - ENE 11.5 mph - N/A   Clear
2:00 PM 57.2 °F - 42.8 °F 59% 30.01 in - ENE 11.5 mph - N/A   Clear
2:30 PM 57.2 °F - 42.8 °F 59% 30.01 in - East 8.1 mph - N/A   Clear
3:00 PM 55.4 °F - 42.8 °F 63% 30.04 in - East 6.9 mph - N/A   Clear
3:30 PM 55.4 °F - 42.8 °F 63% 30.04 in - East 6.9 mph - N/A   Clear
4:00 PM 55.4 °F - 42.8 °F 63% 30.04 in - East 6.9 mph - N/A   Clear
4:30 PM 53.6 °F - 42.8 °F 67% 30.04 in - East 9.2 mph - N/A   Clear
5:00 PM 53.6 °F - 42.8 °F 67% 30.04 in - East 6.9 mph - N/A   Clear
5:30 PM 53.6 °F - 42.8 °F 67% 30.06 in - East 8.1 mph - N/A   Clear
6:00 PM 53.6 °F - 42.8 °F 67% 30.06 in - East 6.9 mph - N/A   Clear
6:30 PM 53.6 °F - 41.0 °F 62% 30.06 in - East 8.1 mph - N/A   Clear
7:00 PM 53.6 °F - 41.0 °F 62% 30.06 in - ESE 6.9 mph - N/A   Clear
7:30 PM 51.8 °F - 41.0 °F 67% 30.06 in - East 8.1 mph - N/A   Clear
8:00 PM 50.0 °F - 41.0 °F 71% 30.06 in - SE 4.6 mph - N/A   Clear
8:30 PM 50.0 °F - 41.0 °F 71% 30.06 in - SE 4.6 mph - N/A   Clear
9:00 PM 51.8 °F - 41.0 °F 67% 30.06 in - ESE 3.5 mph - N/A   Clear
9:30 PM 50.0 °F - 41.0 °F 71% 30.06 in - SE 5.8 mph - N/A   Clear
10:00 PM 48.2 °F - 41.0 °F 76% 30.06 in - SE 4.6 mph - N/A   Clear
10:30 PM 46.4 °F - 41.0 °F 81% 30.06 in 6.2 mi Variable 2.3 mph - N/A   Unknown
11:00 PM 44.6 °F - 41.0 °F 87% 30.06 in 6.2 mi Variable 2.3 mph - N/A   Unknown
11:30 PM 44.6 °F 42.2 °F 41.0 °F 87% 30.06 in 6.2 mi SE 4.6 mph - N/A   Unknown